Terug naar catalogus

SL-12 R/B

AUX MOTOR

ActiefHEO
NORAD 15054·ROCKET BODY·🇷🇺 Russia

Gelanceerd May 19, 1984 vanaf Baikonur Cosmodrome

Loading…

Volgende Passages (komende 24 uur)

TLE

VersSource: Space-Track

Epoch: Sep 14, 2026, 09:32 UTC

1 15054U 84047H   26257.39743147  .00004042  00000-0  54209-3 0  9991
2 15054  52.0188  31.2951 4670383 262.7107  43.9464  6.19095598698845

Volg SL-12 R/B in realtime met AllMySat

Download on the App Store